| time (UTC) | temp C | wind direction | speed KPH | gust KPH | rain 1hr cm | rain 24hr cm | rain mn cm | humidity % | barometer mb |
| 20260505011405 | 8 | 224 | 25.7 | 37.0 | 0.00 | 0.00 | 0.00 | 77 | 1005.0 |
| 20260505010907 | 8 | 207 | 27.4 | 40.2 | 0.00 | 0.00 | 0.00 | 77 | 1004.9 |
| 20260505005916 | 8 | 258 | 30.6 | 43.5 | 0.00 | 0.00 | 0.00 | 77 | 1004.7 |
| 20260505004854 | 8 | 212 | 27.4 | 43.5 | 0.00 | 0.00 | 0.00 | 79 | 1004.8 |
| 20260505003912 | 8 | 227 | 25.7 | 37.0 | 0.00 | 0.00 | 0.00 | 77 | 1004.8 |
| 20260505002909 | 8 | 225 | 27.4 | 37.0 | 0.00 | 0.00 | 0.00 | 78 | 1004.6 |
| 20260505001414 | 8 | 198 | 29.0 | 37.0 | 0.00 | 0.00 | 0.00 | 77 | 1004.4 |
| 20260505000413 | 9 | 230 | 29.0 | 40.2 | 0.00 | 0.00 | 0.00 | 75 | 1004.2 |
| 20260504235912 | 9 | 246 | 29.0 | 38.6 | 0.00 | 0.00 | 0.00 | 77 | 1004.2 |
| 20260504235042 | 8 | 224 | 30.6 | 41.8 | 0.00 | 0.00 | 0.00 | 78 | 1004.0 |
| 20260504234405 | 8 | 234 | 29.0 | 37.0 | 0.00 | 0.00 | 0.00 | 79 | 1003.9 |
| 20260504233416 | 8 | 237 | 24.1 | 38.6 | 0.00 | 0.00 | 0.00 | 78 | 1003.9 |
| 20260504232908 | 8 | 233 | 30.6 | 38.6 | 0.00 | 0.00 | 0.00 | 78 | 1003.7 |
| 20260504231914 | 8 | 238 | 27.4 | 38.6 | 0.00 | 0.00 | 0.00 | 78 | 1003.7 |
| 20260504230936 | 8 | 261 | 30.6 | 40.2 | 0.00 | 0.00 | 0.00 | 77 | 1003.4 |
| 20260504230404 | 8 | 231 | 30.6 | 40.2 | 0.00 | 0.00 | 0.00 | 78 | 1003.4 |
| 20260504225431 | 7 | 277 | 24.1 | 35.4 | 0.00 | 0.00 | 0.00 | 80 | 1003.4 |
| 20260504224428 | 6 | 207 | 16.1 | 27.4 | 0.00 | 0.00 | 0.00 | 79 | 1003.4 |
| 20260504223407 | 7 | 258 | 24.1 | 35.4 | 0.00 | 0.00 | 0.00 | 77 | 1003.2 |
| 20260504222858 | 7 | 272 | 27.4 | 35.4 | 0.00 | 0.00 | 0.00 | 76 | 1003.2 |
| 20260504221905 | 7 | 263 | 27.4 | 43.5 | 0.00 | 0.00 | 0.00 | 73 | 1003.4 |
| 20260504221403 | 8 | 238 | 32.2 | 49.9 | 0.00 | 0.00 | 0.00 | 68 | 1003.3 |
| 20260504220420 | 8 | 248 | 29.0 | 38.6 | 0.00 | 0.00 | 0.00 | 68 | 1002.9 |
| 20260504215412 | 8 | 248 | 29.0 | 35.4 | 0.00 | 0.00 | 0.00 | 67 | 1002.7 |
| 20260504214414 | 8 | 251 | 25.7 | 32.2 | 0.00 | 0.00 | 0.00 | 69 | 1002.3 |
| 20260504213855 | 8 | 234 | 25.7 | 38.6 | 0.00 | 0.00 | 0.00 | 68 | 1002.3 |
| 20260504212910 | -17 | 0.0 | 0.0 | 0.00 | 0.00 | 0.00 | 1002.3 | ||
| 20260504211911 | -17 | 0.0 | 0.0 | 0.00 | 0.00 | 0.00 | 1002.2 | ||
| 20260504210416 | -17 | 0.0 | 0.0 | 0.00 | 0.00 | 0.00 | 1002.3 | ||
| 20260504205429 | -17 | 0.0 | 0.0 | 0.00 | 0.00 | 0.00 | 1002.1 | ||
| 20260504204433 | -17 | 0.0 | 0.0 | 0.00 | 0.00 | 0.00 | 1001.9 | ||
| 20260504203407 | -17 | 0.0 | 0.0 | 0.00 | 0.00 | 0.00 | 1001.8 | ||
| 20260504202417 | -17 | 0.0 | 0.0 | 0.00 | 0.00 | 0.00 | 1001.7 | ||
| 20260504201423 | -17 | 0.0 | 0.0 | 0.00 | 0.00 | 0.00 | 1001.6 | ||
| 20260504200420 | -17 | 0.0 | 0.0 | 0.00 | 0.00 | 0.00 | 1001.3 | ||
| 20260504195411 | -17 | 0.0 | 0.0 | 0.00 | 0.00 | 0.00 | 1001.3 | ||
| 20260504194845 | -17 | 0.0 | 0.0 | 0.00 | 0.00 | 0.00 | 1001.4 | ||
| 20260504193919 | -17 | 0.0 | 0.0 | 0.00 | 0.00 | 0.00 | 1001.4 | ||
| 20260504192915 | -17 | 0.0 | 0.0 | 0.00 | 0.00 | 0.00 | 1001.2 | ||
| 20260504191925 | -17 | 0.0 | 0.0 | 0.00 | 0.00 | 0.00 | 1001.3 | ||
| 20260504190920 | -17 | 0.0 | 0.0 | 0.00 | 0.00 | 0.00 | 1001.1 | ||
| 20260504185914 | -17 | 0.0 | 0.0 | 0.00 | 0.00 | 0.00 | 1001.3 | ||
| 20260504184906 | -17 | 0.0 | 0.0 | 0.00 | 0.00 | 0.00 | 1001.2 | ||
| 20260504183915 | -17 | 0.0 | 0.0 | 0.00 | 0.00 | 0.00 | 1001.3 | ||
| 20260504182920 | -17 | 0.0 | 0.0 | 0.00 | 0.00 | 0.00 | 1001.1 | ||
| 20260504181930 | -17 | 0.0 | 0.0 | 0.00 | 0.00 | 0.00 | 1001.1 | ||
| 20260504180914 | -17 | 0.0 | 0.0 | 0.00 | 0.00 | 0.00 | 1001.1 | ||
| 20260504175916 | -17 | 0.0 | 0.0 | 0.00 | 0.00 | 0.00 | 1000.9 | ||
| 20260504174426 | -17 | 0.0 | 0.0 | 0.00 | 0.00 | 0.00 | 1000.7 | ||
| 20260504173423 | -17 | 0.0 | 0.0 | 0.00 | 0.00 | 0.00 | 1000.7 | ||
| 20260504172430 | -17 | 0.0 | 0.0 | 0.00 | 0.00 | 0.00 | 1000.5 | ||
| 20260504171427 | -17 | 0.0 | 0.0 | 0.00 | 0.00 | 0.00 | 1000.4 | ||
| 20260504170420 | -17 | 0.0 | 0.0 | 0.00 | 0.00 | 0.00 | 1000.4 | ||
| 20260504160425 | -17 | 0.0 | 0.0 | 0.00 | 0.00 | 0.00 | 999.4 | ||
| 20260504150430 | -17 | 0.0 | 0.0 | 0.00 | 0.00 | 0.00 | 999.2 | ||
| 20260504140424 | -17 | 0.0 | 0.0 | 0.00 | 0.00 | 0.00 | 998.1 | ||
| 20260504130418 | -17 | 0.0 | 0.0 | 0.00 | 0.00 | 0.00 | 996.7 | ||
| 20260504110425 | 3 | 271 | 45.1 | 59.5 | 0.00 | 0.00 | 0.00 | 93 | 994.4 |
| 20260504100424 | 3 | 276 | 51.5 | 70.8 | 0.00 | 0.00 | 0.00 | 93 | 992.6 |
| 20260504081855 | 2 | 279 | 67.6 | 88.5 | 0.00 | 0.00 | 0.00 | 93 | 988.3 |
| 20260504080904 | 2 | 274 | 62.8 | 85.3 | 0.00 | 0.00 | 0.00 | 94 | 987.8 |
| 20260504080354 | 2 | 271 | 61.2 | 85.3 | 0.00 | 0.00 | 0.00 | 94 | 987.6 |
| 20260504070337 | 2 | 286 | 49.9 | 66.0 | 0.00 | 0.00 | 0.00 | 95 | 984.8 |
| 20260504045851 | 2 | 281 | 35.4 | 41.8 | 0.00 | 0.00 | 0.00 | 95 | 979.8 |
| 20260504045038 | 2 | 298 | 33.8 | 43.5 | 0.00 | 0.00 | 0.00 | 95 | 979.3 |
| 20260504044335 | 2 | 327 | 32.2 | 43.5 | 0.00 | 0.00 | 0.00 | 95 | 979.4 |
| 20260504043409 | 2 | 315 | 29.0 | 41.8 | 0.00 | 0.00 | 0.00 | 95 | 979.1 |
| 20260504042909 | 2 | 320 | 30.6 | 46.7 | 0.00 | 0.00 | 0.00 | 95 | 979.0 |
| 20260504042328 | 2 | 317 | 33.8 | 46.7 | 0.00 | 0.00 | 0.00 | 95 | 978.9 |
| 20260504041340 | 2 | 319 | 35.4 | 48.3 | 0.00 | 0.00 | 0.00 | 95 | 978.8 |
| 20260504040350 | 2 | 350 | 38.6 | 49.9 | 0.00 | 0.00 | 0.00 | 95 | 978.4 |
| 20260504035849 | 2 | 334 | 41.8 | 51.5 | 0.00 | 0.00 | 0.00 | 95 | 978.3 |
| 20260504034706 | 2 | 346 | 38.6 | 45.1 | 0.00 | 0.00 | 0.00 | 95 | 978.2 |
| 20260504033840 | 3 | 337 | 29.0 | 33.8 | 0.00 | 0.00 | 0.00 | 95 | 977.9 |
| 20260504032906 | 3 | 356 | 24.1 | 35.4 | 0.00 | 0.00 | 0.00 | 94 | 977.9 |
| 20260504032357 | 3 | 348 | 25.7 | 35.4 | 0.00 | 0.00 | 0.00 | 95 | 977.6 |
| 20260504031351 | 3 | 212 | 27.4 | 33.8 | 0.00 | 0.00 | 0.00 | 95 | 977.5 |
| 20260504030355 | 3 | 212 | 27.4 | 33.8 | 0.00 | 0.00 | 0.00 | 95 | 977.8 |
| 20260504025855 | 3 | 1 | 22.5 | 30.6 | 0.00 | 0.00 | 0.00 | 94 | 977.6 |
| 20260504025344 | 3 | 9 | 22.5 | 30.6 | 0.00 | 0.00 | 0.00 | 94 | 977.6 |
| 20260504024344 | 3 | 212 | 20.9 | 25.7 | 0.00 | 0.00 | 0.00 | 95 | 977.5 |
| 20260504023413 | 3 | 10 | 19.3 | 25.7 | 0.00 | 0.00 | 0.00 | 94 | 977.5 |
| 20260504022400 | 3 | 11 | 19.3 | 30.6 | 0.00 | 0.00 | 0.00 | 94 | 977.6 |
| 20260504021356 | 3 | 13 | 22.5 | 32.2 | 0.00 | 0.00 | 0.00 | 94 | 977.8 |
| 20260504020854 | 3 | 13 | 19.3 | 32.2 | 0.00 | 0.00 | 0.00 | 94 | 978.0 |
| 20260504020348 | 3 | 212 | 22.5 | 30.6 | 0.00 | 0.00 | 0.00 | 94 | 978.0 |
| 20260504015350 | 3 | 212 | 22.5 | 33.8 | 0.00 | 0.00 | 0.00 | 94 | 978.2 |
| 20260504014836 | 3 | 212 | 20.9 | 30.6 | 0.00 | 0.00 | 0.00 | 94 | 978.5 |
| 20260504013918 | 3 | 44 | 20.9 | 33.8 | 0.00 | 0.00 | 0.00 | 94 | 978.6 |
| 20260504012907 | 3 | 360 | 22.5 | 35.4 | 0.00 | 0.00 | 0.00 | 94 | 978.7 |